sat.trackr.live / text

‹ back to catalog

STARLINK-36447

NORAD 67425 · 2026-005X

PAYLOAD ACTIVE UNKNOWN

§ Identity

Operator
Country
US
Launch date
2026-01-12
Launch site
AFETR
Launch vehicle
Mass (kg)
RCS (m²)

Purposes: comms

External: N2YO · Heavens-Above · Gunter

§ Orbital elements

Epoch: 2026-09-19T22:17:39.690240Z

Period
94.27 min
Inclination
42.9984°
Eccentricity
0.0000723
Mean motion
15.27592822 rev/d
Perigee alt
482.5 km
Apogee alt
483.5 km
Semi-major
6,861.1 km
B*
3.9412e-4
RAAN
220.9548°
Arg perigee
266.9337°
Mean anomaly
93.1432°
Rev number
3,840

§ Raw data

STARLINK-364471 67425U 26005X   26262.92893160  .00010603  00000+0  39412-3 0  99942 67425  42.9984 220.9548 0000723 266.9337  93.1432 15.27592822 38400

JSON: /api/v1/satellites/67425 · /tle

For live sub-satellite position, see the globe view (requires WebGL).

§ Visibility from observer

Set your observer location to see the next 7 days of passes ≥ 10°. The values pass through the URL so the page stays shareable.

No JS? Fill the form by hand. The geolocation button needs JavaScript.